Stations météo

réclame
Mon MeteoGroup
Ulm-Maehringen, Allemagne (10840): Température de l'air & dewpoint: 18.01.2018 06:00:00 - 24.01.2018 06:00:00 (CET)Ulm-Maehringen, Allemagne (10840): Température de l'air 5cm & Température de l'air -5cm: 18.01.2018 06:00:00 - 24.01.2018 06:00:00 (CET)Ulm-Maehringen, Allemagne (10840): Température de l'air -20cm & Température de l'air -100cm: 18.01.2018 06:00:00 - 24.01.2018 06:00:00 (CET)Ulm-Maehringen, Allemagne (10840): Vitesse du vent & gusts: 18.01.2018 06:00:00 - 24.01.2018 06:00:00 (CET)Ulm-Maehringen, Allemagne (10840): Direction du vent: 18.01.2018 06:00:00 - 24.01.2018 06:00:00 (CET)Ulm-Maehringen, Allemagne (10840): reduced air pressure: 18.01.2018 06:00:00 - 24.01.2018 06:00:00 (CET)Ulm-Maehringen, Allemagne (10840): visibility: 18.01.2018 06:00:00 - 24.01.2018 06:00:00 (CET)Ulm-Maehringen, Allemagne (10840): Ensoleillement: 18.01.2018 06:00:00 - 24.01.2018 06:00:00 (CET)Ulm-Maehringen, Allemagne (10840): Quantités de précipitations: 18.01.2018 06:00:00 - 24.01.2018 06:00:00 (CET)
Date & Time tt [°C] td [°C] tt 5cm [°C] tt -5cm [°C] tt -20cm [°C] tt -100cm [°C] ff [km/h] ff [knt] fx [km/h] fx [knt] dd ppp [hPa] vv [km] sd [min] rr [mm]
24.01.2018 06:00:00 4,5 2,8 3,5 0,5 0,9 4,2 14 8 27 15 SW 1027,3 18 0 0,0
24.01.2018 05:00:00 4,1 2,7 3,0 0,2 0,9 4,2 13 7 24 13 SW 1027,5 17 0 0,0
24.01.2018 04:00:00 3,5 2,1 2,5 0,2 0,9 4,2 13 7 23 12 SW 1027,9 20 0 0,0
24.01.2018 03:00:00 2,8 1,7 1,8 0,2 0,9 4,2 9 5 18 10 WSW 1028,3 22 0 0,0
24.01.2018 02:00:00 2,7 1,6 1,8 0,2 0,9 4,2 11 6 19 11 SW 1028,2 23 0 0,2
24.01.2018 01:00:00 3,2 1,1 2,2 0,2 0,9 4,2 12 7 18 10 SW 1028,6 38 0 0,0
24.01.2018 00:00:00 1,9 0,8 0,5 0,2 0,9 4,2 9 5 19 11 SW 1028,6 23 0 0,0
23.01.2018 23:00:00 1,7 0,0 -0,5 0,2 0,9 4,2 6 3 13 7 W 1028,6 29 0 0,0
23.01.2018 22:00:00 2,5 0,1 -0,3 0,2 0,9 4,2 8 4 16 8 SW 1028,6 57 0 0,0
23.01.2018 21:00:00 2,6 0,0 -1,0 0,2 0,9 4,2 8 4 13 7 SSW 1028,4 53 0 0,0
23.01.2018 20:00:00 4,3 0,2 2,0 0,3 0,9 4,2 9 5 19 10 SW 1027,9 70 0 0,0
23.01.2018 19:00:00 4,7 0,2 3,4 0,3 0,9 4,2 10 6 18 10 SW 1028,0 70 0 0,0
23.01.2018 18:00:00 4,4 0,6 3,1 0,3 0,9 4,2 10 5 19 10 SW 1028,0 70 0 0,0
23.01.2018 17:00:00 4,7 1,1 3,3 0,2 0,8 4,2 10 5 18 10 SW 1027,9 70 0 0,0
23.01.2018 16:00:00 5,3 1,3 4,0 0,2 0,8 4,3 11 6 21 11 SSW 1027,5 70 0 0,0
23.01.2018 15:00:00 5,0 1,4 3,7 0,2 0,8 4,3 11 6 18 10 SW 1027,5 70 0 0,0
23.01.2018 14:00:00 4,8 1,5 3,7 0,2 0,8 4,3 11 6 19 10 SW 1027,6 58 0 0,0
23.01.2018 13:00:00 4,8 1,2 3,6 0,2 0,8 4,3 13 7 21 12 WSW 1028,2 66 0 0,0
23.01.2018 12:00:00 4,9 0,9 3,6 0,2 0,9 4,3 11 6 33 18 SW 1028,1 67 28 0,0
23.01.2018 11:00:00 4,0 1,0 3,0 0,2 0,9 4,3 11 6 21 11 WSW 1028,1 47 18 0,0
23.01.2018 10:00:00 2,7 1,0 1,4 0,2 0,9 4,3 8 4 19 11 W 1028,2 55 0 0,1
23.01.2018 09:00:00 2,4 1,0 1,1 0,2 0,9 4,3 15 8 24 13 WSW 1027,6 10 0 0,1
23.01.2018 08:00:00 2,8 0,8 1,5 0,2 0,8 4,3 10 6 16 9 WSW 1026,6 54 0 0,0
23.01.2018 07:00:00 3,0 0,8 1,4 0,2 0,8 4,3 11 6 21 11 WSW 1025,6 51 0 0,0
23.01.2018 06:00:00 2,8 0,7 1,2 0,2 0,8 4,3 9 5 17 9 WSW 1024,9 44 0 0,0
23.01.2018 05:00:00 2,9 1,0 1,0 0,2 0,8 4,3 6 3 19 10 W 1024,2 33 0 0,0
23.01.2018 04:00:00 2,7 1,1 1,2 0,2 0,8 4,3 8 5 16 9 W 1023,9 42 0 0,0
23.01.2018 03:00:00 3,0 0,9 1,2 0,2 0,8 4,4 11 6 16 9 W 1022,9 41 0 0,0
23.01.2018 02:00:00 2,5 1,4 0,8 0,2 0,8 4,4 9 5 34 18 W 1021,9 31 0 0,6
23.01.2018 01:00:00 3,3 2,1 0,7 0,2 0,8 4,4 8 5 25 13 W 1021,3 24 0 0,0
23.01.2018 00:00:00 3,4 2,0 0,6 0,2 0,8 4,4 10 5 18 10 W 1020,1 29 0 0,0
22.01.2018 23:00:00 4,0 2,1 0,6 0,2 0,9 4,4 8 4 20 11 W 1018,7 25 0 0,0
22.01.2018 22:00:00 4,5 3,1 0,3 0,2 0,9 4,4 14 8 24 13 NW 1016,7 16 0 0,2
22.01.2018 21:00:00 4,6 4,3 0,1 0,2 0,9 4,4 9 5 18 10 WNW 1015,3 25 0 0,2
22.01.2018 20:00:00 4,5 4,1 0,1 0,2 0,9 4,4 10 5 16 8 W 1013,8 29 0 0,3
22.01.2018 19:00:00 4,4 4,2 0,1 0,2 0,9 4,4 6 3 9 5 WNW 1012,9 19 0 0,8
22.01.2018 18:00:00 4,6 4,6 0,1 0,2 0,9 4,4 6 3 9 5 WSW 1011,6 14 0 1,9
22.01.2018 17:00:00 4,7 4,7 0,1 0,2 0,9 4,4 3 2 6 4 W 1010,8 4,4 0 1,7
22.01.2018 16:00:00 5,5 5,4 0,1 0,2 0,9 4,4 5 3 21 11 SW 1010,1 11 0 0,9
22.01.2018 15:00:00 5,8 5,2 0,1 0,2 1,0 4,4 13 7 31 17 SW 1009,8 25 0 0,4
22.01.2018 14:00:00 5,9 4,8 0,1 0,2 1,0 4,4 16 9 34 18 SW 1009,8 54 0 0,0
22.01.2018 13:00:00 4,7 4,5 0,1 0,2 1,0 4,4 9 5 21 11 WSW 1010,4 16 0 0,6
22.01.2018 12:00:00 4,4 4,0 0,1 0,2 1,0 4,4 16 8 29 16 SW 1010,7 6 0 0,2
22.01.2018 11:00:00 3,9 3,5 0,1 0,2 1,0 4,4 18 10 30 16 SW 1010,8 28 0 0,1
22.01.2018 10:00:00 2,5 2,1 0,1 0,2 1,0 4,5 11 6 20 11 WSW 1011,5 37 0 0,5
22.01.2018 09:00:00 0,5 0,5 0,1 0,2 1,0 4,5 5 3 8 4 SW 1012,0 2,9 0 0,7
22.01.2018 08:00:00 -0,1 -0,1 0,1 0,2 1,1 4,5 3 2 5 3 SSE 1012,3 2,5 0 0,5
22.01.2018 07:00:00 -0,5 -0,5 0,0 0,2 1,1 4,5 4 2 5 3 S 1012,4 3,0 0 0,9
22.01.2018 06:00:00 -0,6 -0,7 -0,1 0,3 1,1 4,5 4 2 8 4 SSE 1012,8 2,5 0 0,7
22.01.2018 05:00:00 -0,8 -0,9 -0,3 0,3 1,1 4,5 6 4 10 6 ESE 1012,9 3,5 0 1,4
22.01.2018 04:00:00 -1,1 -1,2 -0,3 0,3 1,1 4,5 7 4 13 7 SE 1013,8 1,1 0 1,8
22.01.2018 03:00:00 -1,2 -1,3 -0,4 0,3 1,1 4,5 9 5 13 7 SE 1014,7 1,1 0 1,5
22.01.2018 02:00:00 -1,4 -1,6 -0,7 0,3 1,1 4,5 9 5 12 6 SE 1015,6 1,6 0 0,6
22.01.2018 01:00:00 -1,9 -2,2 -1,3 0,3 1,1 4,5 8 4 10 5 S 1017,1 3,9 0 0,0
22.01.2018 00:00:00 -2,6 -3,1 -1,8 0,3 1,1 4,5 6 3 9 5 S 1018,4 9 0 0,0
21.01.2018 23:00:00 -3,6 -4,0 -2,3 0,3 1,1 4,5 0 0 3 2 N 1019,7 6 0 0,0
21.01.2018 22:00:00 -3,6 -3,9 -2,7 0,3 1,1 4,5 3 2 7 4 SW 1020,4 7 0 0,0
21.01.2018 21:00:00 -4,1 -4,3 -2,8 0,3 1,1 4,5 4 2 5 3 W 1021,3 6 0 0,0
21.01.2018 20:00:00 -3,9 -4,3 -2,7 0,3 1,1 4,5 2 1 8 4 WSW 1021,4 0,2 0 0,0
21.01.2018 19:00:00 -4,3 -4,3 -2,3 0,3 1,1 4,5 4 2 7 4 W 1021,8 0,3 0 0,0
21.01.2018 18:00:00 -3,1 -4,1 -1,4 0,3 1,1 4,5 5 3 7 4 SW 1021,5 21 0 0,0
21.01.2018 17:00:00 -2,1 -2,5 0,1 0,3 1,1 4,5 3 2 9 5 WNW 1021,0 10 13 0,0
21.01.2018 16:00:00 -0,7 -2,6 0,1 0,3 1,1 4,5 5 3 15 8 W 1020,4 32 4 0,0
21.01.2018 15:00:00 -0,1 -2,6 0,1 0,3 1,1 4,5 9 5 18 10 W 1019,4 38 0 0,0
21.01.2018 14:00:00 0,0 -3,4 0,1 0,3 1,1 4,5 9 5 20 11 W 1018,7 38 2 0,0
21.01.2018 13:00:00 0,1 -2,9 0,1 0,3 1,1 4,5 8 5 19 10 W 1018,0 32 8 0,1
21.01.2018 12:00:00 -0,2 -1,5 0,1 0,3 1,1 4,5 8 4 20 11 WNW 1017,2 12 0 0,4
21.01.2018 11:00:00 0,0 -1,7 0,1 0,3 1,1 4,5 8 4 21 12 WNW 1016,2 18 1 0,4
21.01.2018 10:00:00 0,2 -1,8 0,1 0,3 1,1 4,5 11 6 23 12 WNW 1014,5 34 9 0,0
21.01.2018 09:00:00 0,0 -1,6 -0,1 0,3 1,1 4,5 11 6 28 15 WNW 1013,2 19 0 0,2
21.01.2018 08:00:00 -0,2 -0,8 -0,1 0,3 1,2 4,5 11 6 22 12 NW 1011,6 7 0 0,6
21.01.2018 07:00:00 0,0 -0,6 -0,1 0,3 1,2 4,5 13 7 25 13 WNW 1010,0 6 0 0,4
21.01.2018 06:00:00 0,3 -0,1 -0,4 0,3 1,2 4,5 12 6 26 14 WNW 1008,4 3,2 0 0,0
21.01.2018 05:00:00 0,3 -0,6 -0,8 0,3 1,2 4,5 9 5 18 10 WNW 1007,1 70 0 0,0
21.01.2018 04:00:00 0,3 -0,4 -0,6 0,3 1,2 4,5 10 6 20 11 WNW 1005,6 21 0 0,0
21.01.2018 03:00:00 0,4 -0,5 0,0 0,3 1,2 4,5 12 6 21 11 WNW 1004,0 70 0 0,0
21.01.2018 02:00:00 0,5 -0,1 0,1 0,3 1,2 4,5 8 4 13 7 WNW 1002,4 37 0 0,2
21.01.2018 01:00:00 0,4 0,2 0,1 0,3 1,2 4,5 4 2 8 4 WNW 1001,3 7 0 0,6
21.01.2018 00:00:00 0,1 0,0 0,1 0,3 1,2 4,5 3 1 5 3 SW 1000,2 7 0 0,2
20.01.2018 23:00:00 0,0 0,0 0,1 0,3 1,2 4,5 4 2 8 4 SW 999,9 4,6 0 0,2
20.01.2018 22:00:00 -0,1 -0,1 0,1 0,3 1,2 4,5 4 2 8 4 SW 1000,0 5 0 0,8
20.01.2018 21:00:00 -0,1 -0,1 0,1 0,3 1,3 4,5 5 3 7 4 SSW 1000,4 1,1 0 1,9
20.01.2018 20:00:00 -0,1 -0,1 0,1 0,3 1,3 4,5 5 3 13 7 SSE 1000,5 0,8 0 2,9
20.01.2018 19:00:00 0,0 0,0 0,1 0,3 1,3 4,5 10 6 16 9 SSE 1000,8 - 0 1,8
20.01.2018 18:00:00 0,2 0,0 0,1 0,3 1,3 4,5 12 7 20 11 S 1001,8 2,7 0 0,8
20.01.2018 17:00:00 0,5 0,0 0,1 0,3 1,3 4,5 11 6 25 13 S 1002,9 3,9 0 0,2
20.01.2018 16:00:00 1,0 -0,3 0,4 0,3 1,4 4,5 12 7 22 12 S 1004,3 15 0 0,3
20.01.2018 15:00:00 0,4 0,0 0,2 0,4 1,4 4,5 14 8 26 14 S 1006,1 3,1 0 0,1
20.01.2018 14:00:00 1,1 -0,3 0,8 0,4 1,4 4,5 17 9 33 18 SSW 1007,8 41 0 0,0
20.01.2018 13:00:00 0,9 -0,2 0,6 0,4 1,4 4,6 19 10 36 19 SSW 1009,8 26 0 0,0
20.01.2018 12:00:00 0,6 -0,3 0,2 0,5 1,4 4,6 20 11 35 19 SSW 1011,5 7 0 0,0
20.01.2018 11:00:00 0,3 -0,6 0,0 0,6 1,4 4,6 18 10 29 16 SW 1012,6 20 0 0,0
20.01.2018 10:00:00 0,3 -1,0 -0,1 0,6 1,5 4,6 16 8 25 13 SW 1013,3 51 0 0,0
20.01.2018 09:00:00 0,0 -1,0 -0,3 0,5 1,5 4,6 13 7 32 18 SW 1013,7 35 0 0,0
20.01.2018 08:00:00 -0,1 -1,2 -0,6 0,5 1,5 4,6 22 12 37 20 SW 1013,6 46 0 0,1
20.01.2018 07:00:00 -0,2 -1,1 -0,4 0,5 1,5 4,6 19 10 32 17 SW 1013,6 4,0 0 0,0
20.01.2018 06:00:00 -0,4 -1,7 -1,2 0,4 1,6 4,6 16 9 26 14 SW 1014,1 58 0 0,0
20.01.2018 05:00:00 -0,6 -1,8 -1,4 0,5 1,6 4,6 17 9 25 14 SW 1014,5 50 0 0,0
20.01.2018 04:00:00 -0,4 -1,9 -1,3 0,5 1,6 4,6 11 6 18 10 SW 1015,1 70 0 0,0
20.01.2018 03:00:00 -0,3 -1,9 -1,8 0,5 1,7 4,6 12 6 19 11 WSW 1015,9 70 0 0,1
20.01.2018 02:00:00 -0,2 -0,7 -0,3 0,6 1,7 4,6 12 7 25 13 W 1015,8 2,6 0 0,0
20.01.2018 01:00:00 0,4 -0,9 -0,3 0,6 1,8 4,6 11 6 27 15 W 1015,3 70 0 0,1
20.01.2018 00:00:00 0,6 -1,0 -0,3 0,6 1,9 4,6 14 7 31 17 W 1014,6 70 0 0,0
19.01.2018 23:00:00 0,8 -0,5 0,0 0,6 1,9 4,6 13 7 26 14 W 1014,0 67 0 0,0
19.01.2018 22:00:00 0,4 0,2 0,1 0,7 2,0 4,6 11 6 20 11 SW 1013,5 10 0 0,5
19.01.2018 21:00:00 0,6 0,1 0,1 0,7 2,1 4,6 11 6 21 11 SW 1013,2 2,9 0 0,7
19.01.2018 20:00:00 0,7 -0,1 0,2 0,9 2,2 4,6 7 4 26 14 SSW 1013,1 18 0 0,1
19.01.2018 19:00:00 1,5 -1,1 0,6 1,2 2,3 4,6 9 5 13 7 SSW 1012,8 70 0 0,0
19.01.2018 18:00:00 1,0 -0,7 -0,2 1,4 2,3 4,6 3 1 5 3 SSE 1013,1 70 0 0,0
19.01.2018 17:00:00 1,4 -0,5 0,9 2,1 2,3 4,6 4 2 13 7 SW 1013,3 70 0 0,0
19.01.2018 16:00:00 1,1 -0,6 0,5 2,6 2,2 4,6 10 5 29 16 WSW 1013,7 70 0 0,1
19.01.2018 15:00:00 2,5 -1,4 2,7 3,6 2,1 4,6 9 5 24 13 WSW 1013,1 70 6 0,0
19.01.2018 14:00:00 2,3 -0,7 2,8 4,2 1,9 4,6 12 7 30 16 NW 1013,2 70 10 0,0
19.01.2018 13:00:00 3,4 -2,7 4,1 5,2 1,7 4,7 19 10 43 23 W 1013,0 70 57 0,0
19.01.2018 12:00:00 3,2 -2,6 4,6 3,8 1,6 4,7 22 12 44 24 W 1013,3 33 57 0,0
19.01.2018 11:00:00 2,4 -2,2 2,4 2,2 1,6 4,7 18 10 40 22 W 1013,5 70 49 0,0
19.01.2018 10:00:00 2,1 -2,3 1,9 0,5 1,7 4,7 23 12 40 22 W 1012,6 70 55 0,0
19.01.2018 09:00:00 1,4 -1,9 0,5 0,5 1,7 4,7 15 8 39 21 WNW 1011,8 70 3 0,0
19.01.2018 08:00:00 1,7 -1,2 0,5 0,6 1,8 4,7 18 10 48 26 W 1010,2 70 0 0,0
19.01.2018 07:00:00 2,0 -0,7 0,8 0,8 1,8 4,7 25 13 44 24 W 1008,8 70 0 0,0
19.01.2018 06:00:00 1,9 0,2 1,4 1,3 1,8 4,7 18 10 37 20 W 1008,3 70 0 0,5
19.01.2018 05:00:00 1,8 0,8 1,3 1,6 1,8 4,7 18 10 38 21 W 1007,7 12 0 0,4
19.01.2018 04:00:00 2,3 1,4 1,9 1,7 1,8 4,7 17 9 41 22 WSW 1007,3 23 0 1,6
19.01.2018 03:00:00 3,0 2,1 2,5 1,7 1,8 4,7 12 6 23 12 SW 1006,6 40 0 0,0
19.01.2018 02:00:00 2,7 2,2 2,0 1,7 1,8 4,7 10 5 16 9 SW 1006,4 42 0 0,1
19.01.2018 01:00:00 2,5 2,3 2,3 1,8 1,8 4,8 9 5 16 9 SSW 1006,4 22 0 0,4
19.01.2018 00:00:00 2,8 2,1 2,4 1,8 1,7 4,8 12 6 21 12 SSW 1006,8 12 0 0,2
18.01.2018 23:00:00 3,1 1,7 2,4 1,7 1,7 4,8 10 5 21 12 WSW 1006,6 70 0 0,1
18.01.2018 22:00:00 3,1 1,8 2,5 1,8 1,6 4,8 14 7 33 18 WSW 1006,7 70 0 0,0
18.01.2018 21:00:00 3,3 1,6 2,4 2,0 1,5 4,8 22 12 43 23 W 1006,8 70 0 1,0
18.01.2018 20:00:00 3,3 1,8 2,7 2,3 1,4 4,8 24 13 50 27 WNW 1006,7 9 0 2,1
18.01.2018 19:00:00 4,2 3,9 3,8 2,3 1,3 4,8 8 4 31 17 W 1005,5 6 0 2,8
18.01.2018 18:00:00 4,1 3,6 3,7 2,0 1,2 4,8 19 10 36 19 SW 1004,5 6 0 1,8
18.01.2018 17:00:00 4,2 3,4 3,6 1,6 1,2 4,8 23 12 42 23 SW 1004,3 9 0 0,7
18.01.2018 16:00:00 4,7 2,6 4,4 0,6 1,2 4,8 28 15 46 25 SW 1003,3 70 0 0,0
18.01.2018 15:00:00 4,0 2,4 3,3 0,3 1,2 4,8 29 16 50 27 SSW 1003,5 44 0 0,0
18.01.2018 14:00:00 3,2 1,7 2,5 0,3 1,2 4,8 32 18 61 33 SSW 1004,6 40 0 0,0
18.01.2018 13:00:00 2,6 1,3 1,6 0,3 1,2 4,8 31 17 53 29 SW 1005,3 37 0 0,0
18.01.2018 12:00:00 2,2 0,8 1,2 0,3 1,2 4,8 38 20 66 36 SW 1006,1 13 0 0,0
18.01.2018 11:00:00 1,7 0,4 0,3 0,3 1,3 4,8 30 16 57 31 SW 1006,8 20 2 0,0
18.01.2018 10:00:00 1,4 0,2 0,1 0,3 1,3 4,8 28 15 71 38 SW 1006,6 35 0 0,1
18.01.2018 09:00:00 1,0 -0,2 0,1 0,3 1,3 4,8 37 20 66 36 SW 1007,0 3,9 0 0,0
18.01.2018 08:00:00 0,8 -0,4 0,0 0,3 1,3 4,8 33 18 62 33 SW 1008,0 10 0 0,0
18.01.2018 07:00:00 0,6 -0,1 0,0 0,3 1,3 4,9 27 15 44 24 SW 1009,8 8 0 0,0
18.01.2018 06:00:00 0,4 -0,2 0,0 0,3 1,3 4,9 23 12 51 28 SW 1011,4 5 0 0,2

tt = Température de l'air
td = dewpoint
tt 5cm = Température de l'air 5cm
tt -5cm = Température de l'air -5cm
tt -20cm = Température de l'air -20cm
tt -100cm = Température de l'air -100cm
ff = Vitesse du vent
fx = gusts
dd = Direction du vent
ppp = reduced air pressure
vv = visibility
sd = Ensoleillement
rr = Quantités de précipitations

stations d'obs. à proximité